Starlink 33751

operational
NORAD ID: 63512 Int'l Des: 2025-071 Owner: SPXS Country: US Constellation: starlink
LEOCIRCULAR

About Starlink 33751

Description loading...

Live Position

Loading 3D Globe...

Upcoming Passes

Altitude History

Altitude vs Time

uPlot chart will show altitude changes over time

Two-Line Element Set

1 63512U 25071V 25302.96919628 .00033624 00000-0 11422-2 0 9994
2 63512 53.1610 27.2352 0001385 86.1227 273.9932 15.30202821 32733
Epoch: Oct 29, 2025 • Age: 26 hours

Current Status

Altitude 492.0 km
Velocity 7.62 km/s
Sub-Earth Point -47.27°S, 164.86°W
Launch Date Apr 7, 2025
Age 0.5 years
Type internet

Technical Details

Classification Payload
Mass 575.00 kg
Dry Mass 530.00 kg
Total Mass 575.00 kg
Length 0.30 m
Diameter 4.10 m
Span 29.00 m
Shape Box + pan
Manufacturer SPXS
Bus Type Starlink V2MO
Phase Status In Orbit
Owner/State SPXS/US

Large Constellations

Loading constellations...